RYR9BY LFBO-GMTT

Flight info

Callsign RYR9BY
Flight time 1h 44m
Altitude 31000
Route GAUDE DCT TIVLI/N0436F370 N869 GALTO UB11 TTN UN726 NARMI
Aircraft B738/M-SDE2E3FGHIRWXY/LB1

Departure

Time 2026-04-22 13:11
Airport Toulouse-Blagnac Airport (LFBO)

Arrival

Time 2026-04-22 14:55
Airport Tangier Ibn Battuta Airport (GMTT)
Time Latitude Longitude Altitude Speed Heading
2026-04-22 12:49 43.62865 1.37589 493 ft 0 kts 53°
2026-04-22 13:02 43.62852 1.37564 489 ft 4 kts 42°
2026-04-22 13:02 43.62831 1.37550 482 ft 4 kts 349°
2026-04-22 13:02 43.62810 1.37566 482 ft 3 kts 306°
2026-04-22 13:02 43.62806 1.37574 482 ft 0 kts 306°
2026-04-22 13:05 43.62809 1.37568 482 ft 4 kts 306°
2026-04-22 13:05 43.62830 1.37509 488 ft 8 kts 280°
2026-04-22 13:05 43.62813 1.37436 486 ft 8 kts 248°
2026-04-22 13:06 43.62809 1.37365 493 ft 8 kts 300°
2026-04-22 13:06 43.62851 1.37306 493 ft 9 kts 319°
2026-04-22 13:06 43.62899 1.37240 497 ft 10 kts 293°
2026-04-22 13:06 43.62875 1.37147 488 ft 11 kts 233°
2026-04-22 13:07 43.62837 1.37050 491 ft 12 kts 264°
2026-04-22 13:07 43.62882 1.36958 491 ft 13 kts 322°
2026-04-22 13:07 43.62956 1.36881 489 ft 14 kts 326°
2026-04-22 13:07 43.63035 1.36802 490 ft 14 kts 322°
2026-04-22 13:08 43.63110 1.36723 493 ft 14 kts 322°
2026-04-22 13:08 43.63189 1.36640 490 ft 15 kts 323°
2026-04-22 13:08 43.63279 1.36549 490 ft 18 kts 323°
2026-04-22 13:08 43.63387 1.36435 490 ft 20 kts 322°
2026-04-22 13:09 43.63497 1.36322 491 ft 19 kts 323°
2026-04-22 13:09 43.63603 1.36212 490 ft 19 kts 323°
2026-04-22 13:09 43.63706 1.36105 489 ft 18 kts 323°
2026-04-22 13:09 43.63800 1.35996 493 ft 18 kts 295°
2026-04-22 13:10 43.63798 1.35893 493 ft 17 kts 233°
2026-04-22 13:10 43.63712 1.35797 493 ft 16 kts 169°
2026-04-22 13:10 43.63684 1.35816 486 ft 1 kts 140°
2026-04-22 13:10 43.63646 1.35859 490 ft 25 kts 142°
2026-04-22 13:11 43.63302 1.36215 487 ft 107 kts 143°
2026-04-22 13:11 43.62490 1.37067 583 ft 179 kts 142°
2026-04-22 13:11 43.61428 1.38157 1331 ft 195 kts 142°
2026-04-22 13:11 43.60302 1.39312 2221 ft 205 kts 142°
2026-04-22 13:12 43.59181 1.40429 3401 ft 200 kts 144°
2026-04-22 13:12 43.57935 1.41603 3718 ft 238 kts 144°
2026-04-22 13:12 43.56492 1.43021 3975 ft 271 kts 144°
2026-04-22 13:12 43.54907 1.44584 4529 ft 289 kts 144°
2026-04-22 13:13 43.53276 1.46183 5560 ft 287 kts 144°
2026-04-22 13:13 43.51626 1.47797 6388 ft 294 kts 145°
2026-04-22 13:13 43.49939 1.49349 7363 ft 291 kts 156°
2026-04-22 13:13 43.48002 1.49917 8237 ft 283 kts 188°
2026-04-22 13:14 43.46180 1.49143 9359 ft 270 kts 213°
2026-04-22 13:14 43.44773 1.47479 10216 ft 269 kts 234°
2026-04-22 13:14 43.43852 1.45138 10524 ft 292 kts 253°
2026-04-22 13:14 43.43637 1.42243 10750 ft 317 kts 266°
2026-04-22 13:15 43.43287 1.39203 11276 ft 327 kts 253°
2026-04-22 13:15 43.42380 1.36324 12095 ft 329 kts 239°
2026-04-22 13:15 43.40963 1.33824 12860 ft 336 kts 228°
2026-04-22 13:15 43.39309 1.31540 13710 ft 338 kts 225°
2026-04-22 13:16 43.37621 1.29266 14508 ft 342 kts 226°
2026-04-22 13:16 43.35939 1.26913 15214 ft 348 kts 228°
2026-04-22 13:16 43.34257 1.24487 15941 ft 353 kts 229°
2026-04-22 13:16 43.32559 1.22011 16678 ft 358 kts 229°
2026-04-22 13:17 43.31092 1.19253 17349 ft 361 kts 246°
2026-04-22 13:17 43.30355 1.15968 18109 ft 362 kts 263°
2026-04-22 13:17 43.30307 1.12507 18788 ft 364 kts 272°
2026-04-22 13:17 43.30452 1.09021 19422 ft 368 kts 273°
2026-04-22 13:18 43.30596 1.05489 20050 ft 373 kts 273°
2026-04-22 13:18 43.30718 1.01915 20671 ft 377 kts 272°
2026-04-22 13:18 43.30747 0.98479 21257 ft 381 kts 264°
2026-04-22 13:18 43.30016 0.94977 21850 ft 388 kts 246°
2026-04-22 13:19 43.28535 0.91848 22471 ft 395 kts 231°
2026-04-22 13:19 43.26439 0.89359 23049 ft 403 kts 219°
2026-04-22 13:19 43.24148 0.87111 23601 ft 408 kts 218°
2026-04-22 13:19 43.21804 0.84880 24054 ft 412 kts 217°
2026-04-22 13:20 43.19445 0.82635 24533 ft 415 kts 218°
2026-04-22 13:20 43.17075 0.80358 25026 ft 417 kts 218°
2026-04-22 13:20 43.14699 0.78052 25512 ft 420 kts 218°
2026-04-22 13:20 43.12319 0.75729 26103 ft 418 kts 218°
2026-04-22 13:21 43.09958 0.73420 26791 ft 416 kts 218°
2026-04-22 13:21 43.07612 0.71125 27417 ft 415 kts 218°
2026-04-22 13:21 43.05259 0.68827 27971 ft 415 kts 218°
2026-04-22 13:21 43.02909 0.66534 28580 ft 414 kts 219°
2026-04-22 13:22 43.00817 0.63892 29171 ft 407 kts 236°
2026-04-22 13:22 42.99429 0.60571 29788 ft 400 kts 252°
2026-04-22 13:22 42.98665 0.56947 30336 ft 397 kts 258°
2026-04-22 13:22 42.98023 0.53274 30832 ft 396 kts 259°
2026-04-22 13:23 42.97407 0.49595 30971 ft 401 kts 259°
2026-04-22 13:23 42.96149 0.42178 30998 ft 398 kts 259°
2026-04-22 13:24 42.94871 0.34908 30994 ft 391 kts 259°
2026-04-22 13:24 42.93583 0.27692 31005 ft 392 kts 260°
2026-04-22 13:25 42.92278 0.20437 31093 ft 399 kts 259°
2026-04-22 13:25 42.91611 0.16740 31376 ft 404 kts 259°
2026-04-22 13:25 42.90931 0.12986 31551 ft 410 kts 259°
2026-04-22 13:25 42.90244 0.09194 31866 ft 413 kts 259°
2026-04-22 13:26 42.89550 0.05379 32180 ft 416 kts 259°
2026-04-22 13:26 42.88848 0.01543 32500 ft 419 kts 258°
2026-04-22 13:26 42.88165 -0.02193 32864 ft 418 kts 259°
2026-04-22 13:26 42.87459 -0.06051 32974 ft 418 kts 259°
2026-04-22 13:27 42.86766 -0.09827 32980 ft 407 kts 259°
2026-04-22 13:27 42.85377 -0.17389 33011 ft 417 kts 259°
2026-04-22 13:28 42.83952 -0.25129 33016 ft 421 kts 258°
2026-04-22 13:28 42.82534 -0.32776 33009 ft 418 kts 258°
2026-04-22 13:29 42.80795 -0.40306 32989 ft 423 kts 242°
2026-04-22 13:29 42.78948 -0.43446 33009 ft 429 kts 227°
2026-04-22 13:29 42.76531 -0.45860 32987 ft 437 kts 211°
2026-04-22 13:30 42.70862 -0.48970 33008 ft 441 kts 204°
2026-04-22 13:30 42.65101 -0.51867 32996 ft 442 kts 204°
2026-04-22 13:31 42.59334 -0.54819 32982 ft 443 kts 204°
2026-04-22 13:31 42.53569 -0.57820 32981 ft 444 kts 205°
2026-04-22 13:32 42.47791 -0.60839 32976 ft 445 kts 205°
2026-04-22 13:32 42.42003 -0.63858 32966 ft 446 kts 204°
2026-04-22 13:33 42.36212 -0.66870 32958 ft 446 kts 204°
2026-04-22 13:33 42.30412 -0.69881 32960 ft 447 kts 204°
2026-04-22 13:34 42.24611 -0.72886 32955 ft 446 kts 204°
2026-04-22 13:34 42.18818 -0.75881 32952 ft 446 kts 204°
2026-04-22 13:35 42.13027 -0.78869 32953 ft 445 kts 204°
2026-04-22 13:35 42.07244 -0.81849 32951 ft 445 kts 204°
2026-04-22 13:36 42.01465 -0.84820 32961 ft 445 kts 204°
2026-04-22 13:36 41.95704 -0.87783 32944 ft 445 kts 204°
2026-04-22 13:37 41.89927 -0.90753 32948 ft 445 kts 204°
2026-04-22 13:37 41.84141 -0.93724 32953 ft 445 kts 204°
2026-04-22 13:38 41.78344 -0.96693 32970 ft 446 kts 204°
2026-04-22 13:38 41.69737 -1.01092 32971 ft 447 kts 204°
2026-04-22 13:39 41.64097 -1.04490 32963 ft 442 kts 216°
2026-04-22 13:39 41.59061 -1.09155 32960 ft 441 kts 219°
2026-04-22 13:40 41.54046 -1.13864 32959 ft 441 kts 218°
2026-04-22 13:40 41.49000 -1.18523 32958 ft 441 kts 218°
2026-04-22 13:41 41.43938 -1.23154 32955 ft 441 kts 218°
2026-04-22 13:41 41.38871 -1.27776 32958 ft 441 kts 218°
2026-04-22 13:42 41.33801 -1.32395 32961 ft 441 kts 218°
2026-04-22 13:42 41.28740 -1.36999 32965 ft 441 kts 218°
2026-04-22 13:43 41.23671 -1.41610 32969 ft 441 kts 218°
2026-04-22 13:43 41.18608 -1.46216 32972 ft 438 kts 218°
2026-04-22 13:44 41.13621 -1.50714 32979 ft 435 kts 218°
2026-04-22 13:44 41.08570 -1.55263 32992 ft 439 kts 218°
2026-04-22 13:45 41.03535 -1.59786 32971 ft 436 kts 218°
2026-04-22 13:45 40.98572 -1.64238 32989 ft 434 kts 218°
2026-04-22 13:46 40.93545 -1.68743 33006 ft 433 kts 218°
2026-04-22 13:46 40.88583 -1.73182 33004 ft 434 kts 218°
2026-04-22 13:47 40.83578 -1.77650 33013 ft 434 kts 218°
2026-04-22 13:47 40.78568 -1.82114 33008 ft 435 kts 217°
2026-04-22 13:48 40.73539 -1.86589 33011 ft 436 kts 217°
2026-04-22 13:48 40.68510 -1.91062 33016 ft 437 kts 217°
2026-04-22 13:49 40.63483 -1.95524 33026 ft 435 kts 217°
2026-04-22 13:49 40.58468 -1.99970 33019 ft 433 kts 217°
2026-04-22 13:50 40.53536 -2.04334 33027 ft 431 kts 217°
2026-04-22 13:50 40.48565 -2.08731 33028 ft 430 kts 217°
2026-04-22 13:51 40.43618 -2.13124 33037 ft 429 kts 217°
2026-04-22 13:51 40.38670 -2.17500 33028 ft 428 kts 217°
2026-04-22 13:52 40.33713 -2.21849 33025 ft 429 kts 217°
2026-04-22 13:52 40.28754 -2.26190 33030 ft 429 kts 217°
2026-04-22 13:53 40.23796 -2.30527 33032 ft 429 kts 217°
2026-04-22 13:53 40.18835 -2.34859 33027 ft 428 kts 217°
2026-04-22 13:54 40.14722 -2.38445 33029 ft 427 kts 216°
2026-04-22 13:54 40.09775 -2.42753 33034 ft 427 kts 216°
2026-04-22 13:55 40.04831 -2.47049 33030 ft 426 kts 216°
2026-04-22 13:55 39.99910 -2.51319 33034 ft 426 kts 216°
2026-04-22 13:56 39.94976 -2.55592 33039 ft 425 kts 216°
2026-04-22 13:56 39.90046 -2.59854 33038 ft 425 kts 216°
2026-04-22 13:57 39.85121 -2.64105 33040 ft 425 kts 216°
2026-04-22 13:57 39.80194 -2.68350 33042 ft 425 kts 216°
2026-04-22 13:58 39.75266 -2.72589 33031 ft 424 kts 216°
2026-04-22 13:58 39.70341 -2.76819 33032 ft 424 kts 216°
2026-04-22 13:59 39.65419 -2.81037 33033 ft 424 kts 216°
2026-04-22 13:59 39.60508 -2.85237 33028 ft 424 kts 216°
2026-04-22 14:00 39.55585 -2.89442 33033 ft 423 kts 216°
2026-04-22 14:00 39.50669 -2.93636 33022 ft 423 kts 216°
2026-04-22 14:01 39.45742 -2.97833 33020 ft 423 kts 216°
2026-04-22 14:01 39.40900 -3.01937 33016 ft 424 kts 214°
2026-04-22 14:02 39.35507 -3.05076 33022 ft 428 kts 203°
2026-04-22 14:02 39.29905 -3.07707 32996 ft 428 kts 203°
2026-04-22 14:03 39.24327 -3.10361 33005 ft 427 kts 203°
2026-04-22 14:03 39.18764 -3.13045 33006 ft 427 kts 203°
2026-04-22 14:04 39.13202 -3.15735 33003 ft 427 kts 203°
2026-04-22 14:04 39.07685 -3.18398 32993 ft 426 kts 204°
2026-04-22 14:05 39.02130 -3.21074 32996 ft 426 kts 203°
2026-04-22 14:06 38.93808 -3.25081 32992 ft 426 kts 204°
2026-04-22 14:06 38.88263 -3.27753 32991 ft 426 kts 204°
2026-04-22 14:07 38.82709 -3.30425 32985 ft 426 kts 204°
2026-04-22 14:07 38.77164 -3.33088 32992 ft 426 kts 204°
2026-04-22 14:08 38.71615 -3.35748 32992 ft 426 kts 204°
2026-04-22 14:08 38.66064 -3.38404 32991 ft 426 kts 204°
2026-04-22 14:09 38.60516 -3.41055 32986 ft 426 kts 204°
2026-04-22 14:09 38.54971 -3.43700 32992 ft 426 kts 204°
2026-04-22 14:10 38.49419 -3.46344 32986 ft 426 kts 204°
2026-04-22 14:10 38.43863 -3.48985 32994 ft 426 kts 204°
2026-04-22 14:11 38.38302 -3.51625 32975 ft 426 kts 204°
2026-04-22 14:11 38.32745 -3.54258 32987 ft 426 kts 204°
2026-04-22 14:12 38.27181 -3.56891 32989 ft 427 kts 204°
2026-04-22 14:12 38.21614 -3.59521 32987 ft 427 kts 204°
2026-04-22 14:13 38.16039 -3.62150 32990 ft 427 kts 204°
2026-04-22 14:13 38.10569 -3.65044 32986 ft 425 kts 207°
2026-04-22 14:14 38.05181 -3.68152 32986 ft 426 kts 208°
2026-04-22 14:14 37.99787 -3.71256 32974 ft 426 kts 208°
2026-04-22 14:15 37.94373 -3.74331 32990 ft 427 kts 207°
2026-04-22 14:15 37.88955 -3.77387 32961 ft 427 kts 207°
2026-04-22 14:16 37.83512 -3.80448 32974 ft 428 kts 207°
2026-04-22 14:16 37.78072 -3.83503 32975 ft 428 kts 208°
2026-04-22 14:17 37.72654 -3.86541 32982 ft 428 kts 208°
2026-04-22 14:17 37.67181 -3.89605 32975 ft 428 kts 208°
2026-04-22 14:18 37.61739 -3.92646 32969 ft 428 kts 208°
2026-04-22 14:18 37.56300 -3.95682 32972 ft 427 kts 208°
2026-04-22 14:19 37.50869 -3.98708 32961 ft 427 kts 208°
2026-04-22 14:19 37.45544 -4.01670 32972 ft 426 kts 208°
2026-04-22 14:20 37.37402 -4.06191 32956 ft 427 kts 208°
2026-04-22 14:20 37.31972 -4.09199 32962 ft 426 kts 208°
2026-04-22 14:21 37.23830 -4.13702 32975 ft 426 kts 208°
2026-04-22 14:22 37.15685 -4.18196 32958 ft 427 kts 208°
2026-04-22 14:23 37.07557 -4.22671 32961 ft 428 kts 208°
2026-04-22 14:23 37.02100 -4.25668 32949 ft 428 kts 208°
2026-04-22 14:24 36.96667 -4.28648 32954 ft 428 kts 208°
2026-04-22 14:24 36.91249 -4.31614 32926 ft 416 kts 208°
2026-04-22 14:24 36.88643 -4.33035 32947 ft 401 kts 208°
2026-04-22 14:25 36.86102 -4.34425 32743 ft 398 kts 208°
2026-04-22 14:25 36.83592 -4.35797 32502 ft 390 kts 208°
2026-04-22 14:25 36.81133 -4.37186 32144 ft 384 kts 212°
2026-04-22 14:25 36.78855 -4.38859 31821 ft 377 kts 217°
2026-04-22 14:26 36.76661 -4.40614 31448 ft 374 kts 217°
2026-04-22 14:26 36.74488 -4.42379 31101 ft 371 kts 217°
2026-04-22 14:26 36.72336 -4.44126 30750 ft 368 kts 217°
2026-04-22 14:26 36.70192 -4.45854 30410 ft 366 kts 217°
2026-04-22 14:27 36.68057 -4.47565 30064 ft 363 kts 217°
2026-04-22 14:27 36.65936 -4.49256 29669 ft 360 kts 217°
2026-04-22 14:27 36.63833 -4.50926 29294 ft 357 kts 217°
2026-04-22 14:27 36.61750 -4.52576 28954 ft 353 kts 217°
2026-04-22 14:28 36.59690 -4.54205 28586 ft 349 kts 216°
2026-04-22 14:28 36.57651 -4.55817 28238 ft 346 kts 216°
2026-04-22 14:28 36.55631 -4.57412 27877 ft 343 kts 216°
2026-04-22 14:28 36.53631 -4.58992 27559 ft 339 kts 216°
2026-04-22 14:29 36.51645 -4.60558 27205 ft 337 kts 216°
2026-04-22 14:29 36.49673 -4.62113 26866 ft 335 kts 216°
2026-04-22 14:29 36.47708 -4.63663 26540 ft 335 kts 216°
2026-04-22 14:29 36.45727 -4.65225 26230 ft 344 kts 216°
2026-04-22 14:30 36.43678 -4.66841 25886 ft 352 kts 216°
2026-04-22 14:30 36.41609 -4.68468 25522 ft 350 kts 215°
2026-04-22 14:30 36.39708 -4.69960 25183 ft 348 kts 215°
2026-04-22 14:30 36.37767 -4.71483 24859 ft 345 kts 215°
2026-04-22 14:31 36.35745 -4.73068 24518 ft 342 kts 215°
2026-04-22 14:31 36.33741 -4.74640 24174 ft 340 kts 215°
2026-04-22 14:31 36.31752 -4.76199 23842 ft 337 kts 215°
2026-04-22 14:31 36.29770 -4.77752 23472 ft 336 kts 215°
2026-04-22 14:32 36.27803 -4.79292 23086 ft 333 kts 215°
2026-04-22 14:32 36.25853 -4.80819 22728 ft 330 kts 215°
2026-04-22 14:32 36.23918 -4.82332 22398 ft 327 kts 215°
2026-04-22 14:32 36.22003 -4.83829 22060 ft 324 kts 215°
2026-04-22 14:33 36.20105 -4.85313 21723 ft 321 kts 215°
2026-04-22 14:33 36.18227 -4.86779 21398 ft 319 kts 215°
2026-04-22 14:33 36.16385 -4.88216 21156 ft 316 kts 214°
2026-04-22 14:33 36.14490 -4.89697 20914 ft 319 kts 215°
2026-04-22 14:34 36.12611 -4.91185 20671 ft 323 kts 215°
2026-04-22 14:34 36.10739 -4.92674 20404 ft 324 kts 215°
2026-04-22 14:34 36.08848 -4.94179 20059 ft 322 kts 215°
2026-04-22 14:34 36.06975 -4.95667 19781 ft 317 kts 215°
2026-04-22 14:35 36.05137 -4.97125 19544 ft 312 kts 215°
2026-04-22 14:35 36.03316 -4.98570 19300 ft 310 kts 215°
2026-04-22 14:35 36.01509 -5.00004 19058 ft 309 kts 215°
2026-04-22 14:35 35.99784 -5.01371 18843 ft 307 kts 215°
2026-04-22 14:36 35.97990 -5.02792 18608 ft 305 kts 215°
2026-04-22 14:36 35.96208 -5.04202 18377 ft 304 kts 215°
2026-04-22 14:36 35.94424 -5.05614 18134 ft 306 kts 215°
2026-04-22 14:36 35.92632 -5.07032 17872 ft 306 kts 215°
2026-04-22 14:37 35.90846 -5.08443 17608 ft 304 kts 215°
2026-04-22 14:37 35.89072 -5.09844 17341 ft 302 kts 214°
2026-04-22 14:37 35.87308 -5.11237 17099 ft 300 kts 214°
2026-04-22 14:37 35.85553 -5.12621 16847 ft 299 kts 214°
2026-04-22 14:38 35.83808 -5.13996 16588 ft 297 kts 214°
2026-04-22 14:38 35.82063 -5.15344 16338 ft 296 kts 213°
2026-04-22 14:38 35.80308 -5.16656 16089 ft 294 kts 213°
2026-04-22 14:38 35.78557 -5.17954 15838 ft 293 kts 213°
2026-04-22 14:39 35.76817 -5.19245 15586 ft 292 kts 213°
2026-04-22 14:39 35.75078 -5.20537 15349 ft 291 kts 213°
2026-04-22 14:39 35.73348 -5.21824 15109 ft 290 kts 213°
2026-04-22 14:40 35.70491 -5.23951 14711 ft 288 kts 213°
2026-04-22 14:40 35.68781 -5.25223 14472 ft 285 kts 212°
2026-04-22 14:40 35.67100 -5.26474 14230 ft 280 kts 212°
2026-04-22 14:40 35.65445 -5.27704 13999 ft 276 kts 212°
2026-04-22 14:41 35.63813 -5.28917 13760 ft 273 kts 212°
2026-04-22 14:41 35.62225 -5.30177 13475 ft 270 kts 222°
2026-04-22 14:41 35.61118 -5.32010 13219 ft 269 kts 245°
2026-04-22 14:41 35.60622 -5.34222 12982 ft 272 kts 260°
2026-04-22 14:42 35.60732 -5.36560 12725 ft 277 kts 277°
2026-04-22 14:42 35.61199 -5.38864 12491 ft 279 kts 281°
2026-04-22 14:42 35.61726 -5.41171 12233 ft 281 kts 281°
2026-04-22 14:42 35.62241 -5.43468 11975 ft 277 kts 280°
2026-04-22 14:43 35.62736 -5.45739 11737 ft 273 kts 280°
2026-04-22 14:43 35.63210 -5.47951 11678 ft 262 kts 279°
2026-04-22 14:43 35.63675 -5.50095 11368 ft 262 kts 282°
2026-04-22 14:43 35.64606 -5.52094 10891 ft 280 kts 307°
2026-04-22 14:44 35.66180 -5.53560 10587 ft 289 kts 328°
2026-04-22 14:44 35.68143 -5.54230 10272 ft 300 kts 352°
2026-04-22 14:44 35.70220 -5.53842 9980 ft 308 kts 20°
2026-04-22 14:44 35.71991 -5.52359 9563 ft 313 kts 49°
2026-04-22 14:45 35.73043 -5.50040 9138 ft 312 kts 78°
2026-04-22 14:45 35.73174 -5.47414 8732 ft 306 kts 102°
2026-04-22 14:45 35.72691 -5.44870 8328 ft 305 kts 108°
2026-04-22 14:45 35.72151 -5.42341 7894 ft 306 kts 108°
2026-04-22 14:46 35.71617 -5.39810 7494 ft 306 kts 107°
2026-04-22 14:46 35.71034 -5.37313 7072 ft 298 kts 116°
2026-04-22 14:46 35.69843 -5.35325 6675 ft 282 kts 144°
2026-04-22 14:46 35.68177 -5.34283 6473 ft 263 kts 171°
2026-04-22 14:47 35.66404 -5.34304 6238 ft 253 kts 195°
2026-04-22 14:47 35.64827 -5.35212 5981 ft 251 kts 217°
2026-04-22 14:47 35.63670 -5.36808 5744 ft 252 kts 238°
2026-04-22 14:47 35.63047 -5.38821 5489 ft 255 kts 259°
2026-04-22 14:48 35.63014 -5.41021 5259 ft 260 kts 271°
2026-04-22 14:48 35.63157 -5.43233 5037 ft 264 kts 273°
2026-04-22 14:48 35.63318 -5.45529 4775 ft 267 kts 273°
2026-04-22 14:48 35.63466 -5.47793 4534 ft 265 kts 273°
2026-04-22 14:49 35.63701 -5.50024 4265 ft 264 kts 286°
2026-04-22 14:49 35.64473 -5.52034 4023 ft 255 kts 297°
2026-04-22 14:49 35.65308 -5.53920 3774 ft 248 kts 297°
2026-04-22 14:49 35.66104 -5.55734 3774 ft 236 kts 297°
2026-04-22 14:50 35.66878 -5.57519 3821 ft 240 kts 296°
2026-04-22 14:50 35.67672 -5.59367 3825 ft 248 kts 296°
2026-04-22 14:50 35.68462 -5.61215 3828 ft 246 kts 296°
2026-04-22 14:50 35.69252 -5.63068 3825 ft 244 kts 297°
2026-04-22 14:51 35.70041 -5.64928 3837 ft 247 kts 296°
2026-04-22 14:51 35.70778 -5.66858 3718 ft 253 kts 286°
2026-04-22 14:51 35.71100 -5.68988 3423 ft 253 kts 274°
2026-04-22 14:51 35.71259 -5.71147 3121 ft 254 kts 274°
2026-04-22 14:52 35.71435 -5.73282 2785 ft 248 kts 275°
2026-04-22 14:52 35.71621 -5.75354 2477 ft 238 kts 276°
2026-04-22 14:52 35.71801 -5.77324 2167 ft 225 kts 277°
2026-04-22 14:52 35.71972 -5.79183 1863 ft 213 kts 277°
2026-04-22 14:53 35.72133 -5.80941 1588 ft 202 kts 278°
2026-04-22 14:53 35.72285 -5.82597 1322 ft 186 kts 278°
2026-04-22 14:53 35.72421 -5.84098 1074 ft 168 kts 279°
2026-04-22 14:53 35.72547 -5.85458 904 ft 150 kts 278°
2026-04-22 14:54 35.72660 -5.86684 728 ft 138 kts 279°
2026-04-22 14:54 35.72776 -5.87862 550 ft 138 kts 281°
2026-04-22 14:54 35.72874 -5.89020 337 ft 134 kts 279°
2026-04-22 14:54 35.72976 -5.90146 136 ft 131 kts 279°
2026-04-22 14:55 35.73080 -5.91235 61 ft 120 kts 278°
2026-04-22 14:55 35.73157 -5.92081 59 ft 74 kts 276°
2026-04-22 14:55 35.73208 -5.92621 58 ft 43 kts 275°
2026-04-22 14:55 35.73244 -5.92964 59 ft 38 kts 277°
2026-04-22 14:56 35.73261 -5.93229 52 ft 18 kts 258°
2026-04-22 14:56 35.73179 -5.93326 55 ft 17 kts 188°
2026-04-22 14:56 35.73105 -5.93279 53 ft 10 kts 126°
2026-04-22 14:56 35.73087 -5.93197 55 ft 10 kts 82°
2026-04-22 14:57 35.73078 -5.93114 57 ft 10 kts 99°
2026-04-22 14:57 35.73067 -5.93032 57 ft 10 kts 99°
2026-04-22 14:57 35.73062 -5.92986 57 ft 5 kts 96°
2026-04-22 14:57 35.73058 -5.92941 52 ft 6 kts 96°
2026-04-22 14:58 35.73054 -5.92891 59 ft 7 kts 96°
2026-04-22 14:58 35.73048 -5.92824 59 ft 9 kts 96°
2026-04-22 14:58 35.73040 -5.92733 54 ft 13 kts 96°
2026-04-22 14:58 35.73030 -5.92593 53 ft 19 kts 95°
2026-04-22 14:59 35.73012 -5.92434 55 ft 18 kts 98°
2026-04-22 14:59 35.72999 -5.92282 52 ft 18 kts 99°
2026-04-22 14:59 35.72984 -5.92134 58 ft 17 kts 96°
2026-04-22 14:59 35.72971 -5.91990 53 ft 17 kts 96°
2026-04-22 15:00 35.72960 -5.91852 57 ft 16 kts 96°
2026-04-22 15:00 35.72914 -5.91738 56 ft 15 kts 151°
2026-04-22 15:00 35.72822 -5.91715 59 ft 10 kts 174°
2026-04-22 15:00 35.72751 -5.91707 59 ft 10 kts 174°
2026-04-22 15:01 35.72689 -5.91702 59 ft 6 kts 176°
2026-04-22 15:01 35.72648 -5.91698 59 ft 6 kts 176°
2026-04-22 15:01 35.72601 -5.91694 59 ft 10 kts 176°
2026-04-22 15:01 35.72510 -5.91683 59 ft 15 kts 163°
2026-04-22 15:02 35.72437 -5.91606 58 ft 14 kts 114°
2026-04-22 15:02 35.72428 -5.91519 53 ft 9 kts 89°
2026-04-22 15:02 35.72432 -5.91440 59 ft 10 kts 86°
2026-04-22 15:02 35.72438 -5.91337 59 ft 13 kts 84°
2026-04-22 15:03 35.72450 -5.91245 59 ft 9 kts 57°
2026-04-22 15:03 35.72464 -5.91243 50 ft 2 kts 349°
2026-04-22 15:03 35.72478 -5.91245 59 ft 3 kts 353°
2026-04-22 15:03 35.72502 -5.91247 59 ft 1 kts 355°
2026-04-22 15:04 35.72516 -5.91249 59 ft 0 kts 355°
2026-04-22 15:04 35.72520 -5.91249 59 ft 0 kts 355°